Temp
22 19 19 21 22 22 22 22 23 24 26 26 25 26 26 26 26 26 27 28 28 27 24 22 21 20 19 18 17 16 14 14 14 14 13 14 14 13 13 13 12 12 12 12
19 19 21 23 23 22 23 22 22 24 26 26 25 24 24 25 26 27 28 28 27 23 22 21 21 19 18 18 17 15 14 14 14 13 14 14 13 13 13 12 12 12 11 11
19 21 23 22 22 22 22 22 22 23 25 26 25 23 25 26 27 28 28 28 25 24 22 21 19 19 18 17 16 15 14 14 14 14 14 13 13 13 13 12 12 12 12 12
20 22 23 22 22 23 21 24 24 24 24 21 26 20 24 24 23 24 27 26 24 23 22 21 19 18 17 17 16 15 14 14 13 14 14 14 13 12 12 12 12 12 12 12
20 21 21 22 22 23 23 25 25 25 23 22 24 20 21 24 23 23 25 26 23 23 23 20 19 18 17 16 16 15 14 14 14 14 13 13 13 13 12 12 12 12 12 12
22 24 23 22 24 25 25 24 24 24 24 19 22 21 22 22 24 25 26 25 23 22 21 20 19 18 17 16 16 15 14 14 14 13 13 13 13 13 13 12 12 12 12 12
22 22 24 24 23 25 25 22 20 18 19 17 23 22 21 23 24 25 21 22 23 22 21 19 18 18 17 17 16 15 14 14 14 14 13 14 13 13 13 12 12 12 12 12
19 20 23 25 24 24 24 23 21 18 18 20 23 22 23 24 26 26 25 24 23 22 21 19 19 18 17 17 16 15 15 14 14 14 13 13 13 13 13 12 12 12 12 12
19 20 24 25 26 25 24 23 23 21 22 20 21 24 24 24 24 23 22 24 22 21 20 19 19 18 17 17 16 16 15 15 14 14 13 13 13 13 13 12 12 12 12 13
21 20 24 25 26 26 25 24 22 18 19 18 21 22 21 23 23 22 20 21 22 21 20 19 19 18 18 17 16 16 16 15 15 14 13 13 13 13 13 13 13 12 12 12
21 20 22 24 24 24 24 24 22 20 19 18 18 18 21 23 22 22 20 22 22 21 20 20 19 18 18 17 17 16 15 15 15 14 14 13 13 13 13 13 13 12 12 12
21 18 19 22 26 26 25 23 21 22 19 20 19 20 25 22 21 21 21 23 22 21 21 20 19 19 18 17 17 16 15 15 15 14 14 13 13 13 13 13 13 13 13 12
22 20 17 21 22 24 25 24 23 20 19 19 19 19 23 23 22 23 21 23 22 21 21 20 19 19 18 18 17 16 16 16 15 14 14 13 13 13 13 13 13 13 13 13
22 20 20 18 22 24 24 24 24 20 19 21 21 22 23 24 22 21 22 23 22 22 21 20 20 19 19 18 17 16 16 16 16 15 14 13 13 13 13 13 13 13 13 13
17 20 20 22 23 24 25 25 24 23 21 22 22 23 22 23 22 22 22 22 22 22 22 21 20 19 19 18 18 17 16 16 16 15 15 14 13 13 13 13 13 13 13 12
12 20 21 21 24 24 25 25 25 25 24 23 23 23 23 24 27 23 23 22 22 22 22 21 21 20 19 19 18 18 17 16 16 16 15 14 13 13 13 13 13 13 13 13
10 14 19 20 22 23 21 25 25 25 24 24 23 23 25 24 24 22 23 23 23 23 23 22 21 21 20 19 19 18 17 17 16 16 15 15 13 13 13 13 13 13 13 13
10 11 15 19 20 18 22 24 26 25 25 23 23 24 24 24 27 26 25 24 23 24 23 23 22 21 20 20 19 18 18 17 17 16 15 15 13 13 13 13 13 13 13 13
13 12 14 18 19 22 23 24 24 23 23 25 23 24 25 28 27 26 27 26 26 25 24 23 22 22 21 20 19 19 18 17 17 16 16 15 14 14 13 13 13 13 13 13
15 14 15 17 16 19 22 24 25 23 22 22 23 22 23 24 23 21 27 27 26 25 25 24 23 22 21 21 20 19 18 17 17 16 16 16 15 14 14 13 13 13 13 13
16 15 16 16 17 20 23 25 26 22 19 22 25 24 24 21 22 28 28 27 26 26 25 24 23 22 22 21 20 19 18 18 17 17 16 16 16 15 14 13 13 13 13 12
14 16 16 17 18 19 25 24 22 21 25 26 25 27 27 28 28 28 28 27 26 26 25 24 23 23 22 21 20 19 18 18 18 17 17 17 16 15 15 14 13 13 13 13
12 11 11 14 17 20 24 24 26 26 26 27 27 28 28 28 28 28 28 26 26 25 25 24 24 23 22 21 21 20 19 18 18 18 18 17 17 16 15 15 14 13 13 13
9 9 10 11 14 15 18 18 16 22 27 27 28 27 28 27 27 27 27 27 26 25 25 24 24 23 22 21 21 21 19 18 18 18 18 18 17 16 16 15 14 14 14 13
7 8 10 11 12 12 14 13 14 17 21 25 27 27 28 27 27 27 26 27 26 25 25 24 24 23 23 21 21 21 20 19 18 18 18 18 18 17 16 16 15 14 14 14
8 8 10 9 11 11 11 12 14 16 17 18 18 24 27 27 27 27 27 26 26 26 25 24 24 24 23 22 21 21 20 19 18 18 19 18 18 17 17 16 15 14 14 14
Height
1455 1462 1460 1459 1458 1460 1464 1465 1464 1450 1440 1448 1447 1445 1439 1435 1437 1441 1440 1439 1439 1439 1443 1449 1454 1457 1460 1464 1468 1473 1475 1476 1476 1475 1473 1471 1468 1466 1464 1461 1458 1455 1453 1454
1456 1443 1447 1449 1452 1457 1456 1461 1459 1447 1439 1439 1443 1442 1436 1430 1432 1430 1431 1432 1433 1436 1444 1449 1452 1454 1458 1462 1466 1470 1474 1475 1475 1474 1472 1470 1467 1465 1462 1460 1457 1454 1452 1451
1439 1432 1441 1445 1447 1452 1451 1455 1454 1455 1438 1430 1436 1443 1434 1426 1424 1425 1424 1423 1428 1431 1438 1444 1449 1452 1456 1460 1464 1469 1472 1473 1473 1473 1470 1468 1466 1464 1460 1459 1456 1453 1451 1451
1429 1431 1431 1437 1440 1443 1452 1437 1441 1442 1446 1461 1428 1469 1439 1430 1428 1422 1419 1419 1423 1430 1436 1440 1445 1450 1454 1459 1464 1468 1471 1472 1472 1472 1470 1467 1465 1461 1458 1457 1456 1453 1452 1451
1413 1418 1424 1426 1427 1430 1434 1428 1431 1432 1440 1446 1439 1459 1443 1428 1432 1424 1415 1416 1421 1425 1430 1436 1442 1448 1454 1459 1463 1467 1470 1471 1472 1471 1469 1467 1464 1460 1458 1457 1455 1453 1452 1452
1406 1408 1412 1415 1418 1419 1418 1426 1426 1428 1434 1464 1444 1452 1441 1437 1426 1417 1412 1414 1420 1426 1432 1438 1444 1449 1454 1459 1463 1466 1469 1470 1471 1471 1469 1467 1465 1462 1459 1457 1455 1453 1451 1451
1402 1399 1401 1403 1411 1410 1414 1428 1454 1468 1462 1472 1431 1444 1439 1419 1413 1411 1414 1417 1422 1427 1432 1438 1442 1448 1453 1458 1462 1465 1468 1469 1470 1470 1469 1468 1466 1464 1461 1458 1456 1453 1452 1452
1407 1412 1390 1386 1393 1403 1408 1417 1441 1469 1469 1455 1429 1447 1428 1405 1403 1407 1410 1416 1421 1426 1431 1436 1441 1447 1453 1457 1461 1464 1466 1468 1470 1470 1469 1468 1468 1465 1462 1460 1457 1454 1453 1453
1394 1391 1371 1377 1381 1389 1400 1410 1403 1429 1426 1447 1436 1416 1406 1401 1405 1406 1412 1416 1421 1426 1431 1436 1441 1447 1452 1456 1460 1463 1466 1468 1469 1469 1469 1468 1468 1466 1464 1462 1459 1457 1456 1456
1373 1396 1370 1370 1377 1376 1384 1388 1416 1429 1455 1468 1441 1431 1431 1411 1408 1408 1414 1417 1422 1427 1431 1436 1440 1446 1451 1455 1460 1463 1465 1467 1468 1469 1469 1469 1469 1467 1465 1464 1462 1460 1459 1459
1375 1380 1374 1370 1372 1379 1383 1390 1397 1411 1428 1456 1460 1447 1399 1399 1401 1405 1410 1414 1419 1425 1430 1435 1440 1446 1450 1454 1458 1462 1465 1467 1468 1469 1469 1469 1470 1469 1468 1466 1465 1463 1462 1462
1358 1374 1385 1370 1355 1357 1368 1382 1392 1411 1431 1426 1437 1436 1390 1396 1398 1401 1408 1413 1419 1425 1429 1435 1439 1445 1449 1453 1457 1461 1464 1466 1467 1468 1469 1470 1470 1470 1470 1469 1468 1466 1465 1465
1353 1369 1394 1373 1367 1357 1365 1365 1375 1392 1406 1424 1437 1435 1391 1390 1395 1398 1406 1411 1417 1423 1429 1434 1439 1443 1448 1451 1455 1459 1463 1465 1466 1467 1468 1470 1471 1471 1471 1472 1470 1469 1467 1468
1340 1352 1362 1376 1358 1351 1363 1364 1369 1389 1412 1411 1410 1408 1399 1394 1396 1400 1404 1408 1415 1420 1427 1432 1436 1441 1446 1450 1453 1457 1461 1464 1465 1466 1468 1470 1472 1472 1473 1474 1474 1472 1472 1472
1341 1344 1346 1349 1347 1346 1346 1355 1363 1374 1387 1398 1398 1399 1395 1390 1392 1395 1398 1406 1413 1419 1425 1430 1434 1439 1443 1448 1451 1455 1460 1463 1465 1466 1468 1470 1472 1474 1475 1476 1476 1476 1476 1476
1352 1336 1338 1348 1338 1343 1349 1343 1351 1360 1372 1380 1384 1390 1382 1382 1384 1388 1394 1402 1409 1414 1420 1426 1431 1436 1440 1445 1449 1453 1457 1461 1464 1465 1467 1470 1473 1475 1476 1477 1478 1479 1479 1479
1369 1350 1341 1351 1341 1346 1361 1343 1345 1351 1359 1367 1383 1378 1373 1380 1380 1383 1389 1396 1402 1408 1414 1420 1426 1431 1436 1441 1446 1451 1455 1459 1462 1465 1467 1470 1472 1475 1477 1479 1480 1481 1482 1482
1364 1363 1347 1344 1349 1371 1340 1332 1334 1347 1351 1357 1363 1366 1370 1372 1375 1376 1381 1389 1396 1401 1407 1414 1421 1427 1432 1438 1444 1449 1453 1457 1461 1463 1466 1469 1472 1475 1478 1480 1482 1483 1484 1486
1352 1362 1355 1345 1348 1336 1331 1325 1332 1347 1352 1345 1356 1358 1362 1366 1371 1376 1377 1382 1388 1393 1400 1406 1414 1421 1428 1434 1440 1446 1450 1454 1458 1462 1465 1467 1471 1474 1477 1480 1483 1485 1486 1488
1335 1342 1350 1338 1357 1349 1330 1319 1320 1330 1356 1340 1345 1352 1356 1362 1377 1376 1376 1379 1384 1390 1396 1403 1410 1417 1422 1429 1436 1442 1446 1451 1455 1460 1463 1466 1469 1473 1476 1479 1482 1485 1487 1489
1330 1334 1343 1341 1344 1333 1316 1316 1318 1350 1359 1331 1335 1343 1350 1359 1362 1367 1370 1374 1379 1385 1391 1399 1405 1411 1418 1424 1431 1437 1443 1446 1452 1457 1461 1464 1467 1471 1475 1478 1481 1484 1487 1490
1339 1328 1331 1333 1336 1344 1308 1317 1330 1329 1322 1323 1329 1335 1343 1349 1356 1363 1366 1369 1375 1382 1388 1395 1402 1408 1415 1420 1426 1432 1438 1444 1450 1454 1458 1462 1465 1468 1472 1476 1479 1483 1486 1489
1347 1348 1344 1340 1330 1307 1311 1320 1320 1315 1317 1320 1326 1331 1337 1345 1352 1358 1363 1367 1371 1377 1384 1391 1397 1404 1411 1417 1422 1427 1434 1441 1447 1451 1454 1458 1463 1466 1469 1473 1476 1480 1483 1487
1354 1349 1343 1344 1331 1326 1321 1322 1320 1317 1312 1316 1322 1328 1333 1339 1347 1353 1359 1364 1368 1375 1381 1388 1394 1401 1407 1413 1418 1424 1430 1437 1443 1448 1451 1455 1459 1462 1466 1470 1473 1476 1479 1482
1368 1365 1350 1346 1340 1326 1324 1333 1330 1322 1317 1317 1321 1325 1330 1335 1342 1349 1355 1359 1366 1373 1379 1384 1389 1397 1403 1409 1415 1421 1427 1432 1438 1443 1447 1451 1455 1458 1462 1465 1468 1472 1476 1479
1376 1368 1360 1359 1358 1356 1353 1342 1338 1324 1320 1321 1322 1323 1325 1330 1337 1345 1351 1355 1361 1368 1374 1380 1386 1393 1399 1406 1411 1417 1423 1428 1434 1439 1442 1445 1450 1454 1458 1462 1466 1469 1472 1476
Wind_Speed
20 10 18 21 22 16 14 14 19 22 19 17 6 20 9 15 13 10 18 21 20 18 34 30 25 21 16 10 9 6 4 8 8 9 12 10 10 12 13 14 14 10 7 9
14 26 21 19 16 20 17 19 22 23 19 4 15 20 13 8 7 15 22 27 23 24 35 28 24 20 16 10 7 5 6 6 7 6 8 10 14 14 14 12 13 11 4 6
25 15 19 19 18 19 21 20 21 19 21 16 6 5 5 5 9 20 29 33 19 29 37 32 27 22 17 11 8 6 6 7 3 5 8 11 12 11 12 7 11 9 3 3
22 21 19 23 23 21 21 19 21 21 16 8 1 6 4 6 10 10 22 22 27 35 34 33 29 25 17 11 8 8 9 2 2 6 9 12 17 16 10 4 10 7 3 4
20 24 24 23 23 24 22 16 19 21 15 7 4 3 5 4 8 13 4 20 34 38 34 33 30 22 14 11 10 10 7 4 1 7 10 13 16 11 7 3 6 8 1 3
20 21 21 29 24 24 25 16 16 16 11 4 6 7 9 6 8 5 4 15 36 36 34 31 25 19 15 13 13 9 7 4 3 4 7 9 12 12 10 7 6 6 1 4
22 25 22 23 22 23 20 14 9 3 3 6 5 4 9 9 7 7 10 25 33 32 33 31 26 22 19 18 13 10 10 3 5 3 5 7 11 11 13 11 9 7 7 5
17 12 27 24 26 21 19 15 7 7 4 5 6 7 10 14 12 19 30 32 32 35 33 31 27 23 21 16 15 9 10 7 6 1 3 6 8 7 10 12 10 10 6 10
19 17 11 26 18 23 16 12 13 5 1 2 5 6 6 7 8 10 20 29 32 34 33 30 26 22 21 17 15 11 10 5 7 2 2 5 7 8 9 10 11 10 10 9
5 5 21 21 18 18 23 7 7 1 8 6 5 6 6 7 9 10 11 19 30 33 31 30 28 23 20 18 15 11 9 9 6 1 4 4 5 7 9 9 10 9 11 13
17 4 7 19 21 23 12 12 4 7 6 5 2 7 7 12 9 14 12 27 32 34 32 31 26 23 20 19 16 14 10 9 8 5 5 4 2 2 7 9 11 7 10 14
31 6 10 15 18 22 14 10 7 8 6 5 5 6 9 8 12 12 18 28 30 31 31 29 27 25 21 19 16 15 11 11 7 5 6 6 3 1 6 7 11 11 7 14
22 18 4 5 8 11 18 14 9 6 6 8 5 5 6 10 9 23 23 30 31 31 30 29 29 26 22 19 17 13 14 12 8 8 5 7 2 1 5 8 10 13 11 10
23 13 22 10 9 10 24 18 16 9 5 7 8 7 5 7 10 10 24 33 34 33 32 32 31 27 23 20 19 15 14 14 11 11 6 9 2 10 10 9 11 12 15 14
5 22 13 23 21 12 22 21 20 17 9 14 8 6 11 10 10 17 33 34 34 34 33 33 32 28 25 21 21 17 13 17 14 13 7 8 6 12 10 11 10 11 12 15
11 14 22 17 20 21 13 26 22 20 11 7 13 12 10 13 25 17 31 33 32 35 35 34 32 29 27 24 23 20 16 19 16 14 10 7 10 13 11 11 10 11 13 15
7 6 12 22 18 11 15 19 23 19 9 13 13 6 4 5 9 13 30 36 35 37 38 35 34 31 29 28 24 22 19 21 17 15 12 6 16 14 14 13 13 11 9 10
11 10 4 11 13 19 9 12 17 19 17 10 8 14 9 8 11 25 40 39 40 41 40 36 35 31 29 27 25 23 22 22 17 17 14 8 17 15 15 16 15 12 8 5
16 8 5 8 15 2 10 13 23 15 15 15 10 12 14 25 15 7 39 39 40 40 41 40 38 32 30 29 27 26 24 22 18 20 18 12 17 16 18 17 18 16 10 7
15 14 5 1 9 19 7 7 7 7 12 11 12 11 9 15 10 5 33 39 38 37 38 41 39 35 33 32 30 29 27 24 20 20 22 15 14 18 18 18 16 18 16 11
8 6 11 6 4 5 9 8 4 10 8 9 21 17 13 7 10 21 19 38 36 38 38 39 39 38 35 33 32 31 29 28 21 19 21 19 15 19 15 19 16 16 20 16
4 1 3 4 4 5 5 6 7 6 7 25 25 32 27 25 23 16 13 32 39 39 38 39 41 39 37 34 32 32 32 28 23 22 23 22 19 21 21 19 19 15 20 21
4 3 2 5 5 4 12 2 18 25 19 17 23 32 34 28 26 23 13 33 40 40 40 41 41 41 38 35 31 33 31 29 26 24 26 25 22 21 22 22 20 19 22 21
11 13 3 9 16 17 23 33 39 14 25 21 18 27 37 32 27 21 20 27 40 40 40 42 43 41 39 37 32 28 31 31 28 26 27 28 26 23 22 21 21 21 23 26
2 14 8 6 16 24 28 40 40 34 18 4 19 22 37 35 30 28 27 31 39 37 40 41 42 40 38 37 33 29 31 32 32 28 28 31 28 26 23 22 22 21 22 25
8 4 4 4 17 8 21 40 32 32 28 19 23 13 37 37 35 33 30 39 37 34 38 39 40 37 35 35 34 32 32 34 35 32 32 32 32 30 26 22 22 20 20 20
Wind_Direction
218 220 226 219 225 240 234 241 249 255 253 246 337 270 257 220 216 228 251 271 270 241 178 174 183 191 201 212 224 254 274 294 313 317 330 331 332 314 326 348 343 347 271 245
221 232 219 233 226 230 243 243 258 272 277 174 219 253 247 203 215 244 259 266 265 162 158 170 183 190 201 207 209 221 261 273 308 337 342 341 330 315 311 324 342 341 311 242
220 222 220 229 230 239 236 235 248 259 278 285 264 305 303 259 246 270 267 253 173 170 165 173 181 188 195 198 195 219 218 267 355 341 336 344 349 336 328 310 336 332 284 169
231 225 220 213 230 224 238 229 235 251 261 262 276 288 293 309 300 297 285 152 159 167 172 177 181 185 189 188 195 188 228 228 308 355 350 0 349 337 346 340 344 355 348 157
214 208 216 225 214 225 239 227 229 239 249 245 276 291 249 252 292 283 196 156 165 169 175 179 179 178 180 180 194 193 224 201 299 353 5 8 2 14 19 5 340 360 13 169
224 223 210 226 234 219 230 236 239 239 238 236 217 186 265 235 236 186 139 146 162 165 171 171 170 171 167 181 192 194 208 178 138 322 350 11 29 41 41 17 1 0 308 155
218 224 223 225 223 228 219 219 236 290 237 213 216 285 254 260 232 171 139 132 150 163 165 164 167 166 168 182 193 187 196 188 148 270 353 27 42 49 42 41 44 30 80 122
213 217 214 212 221 221 223 201 199 211 184 245 243 240 258 228 217 124 145 149 153 158 164 166 168 168 175 186 189 197 194 170 163 231 5 18 28 38 27 37 45 61 88 123
195 228 198 220 217 212 232 206 192 174 273 209 229 230 340 119 129 120 132 142 150 159 164 165 168 172 179 186 192 187 182 172 184 265 75 38 36 42 34 41 44 79 86 117
261 194 229 208 215 237 210 185 153 79 199 250 294 297 226 155 174 125 126 138 152 159 163 165 168 173 181 187 185 179 183 178 194 86 106 84 29 36 30 46 61 85 85 101
232 221 240 212 207 214 222 211 144 135 151 174 235 273 232 168 150 142 144 150 156 163 164 166 168 176 182 187 186 183 185 186 186 165 157 138 100 29 46 61 68 84 91 113
211 204 235 229 212 208 214 180 155 179 217 201 182 260 150 136 143 140 146 154 159 162 165 167 170 174 180 186 192 190 190 187 192 172 147 150 155 100 80 83 61 66 116 119
200 225 293 240 273 208 201 183 178 135 135 205 181 246 222 151 129 144 145 154 162 163 167 171 172 175 183 188 193 188 185 190 187 180 173 157 198 148 94 95 71 58 105 124
192 195 214 221 205 193 193 180 189 156 170 183 217 224 166 142 140 145 153 163 165 167 172 175 175 177 185 187 195 192 182 197 180 189 188 166 163 115 105 103 86 78 89 109
292 202 193 224 247 255 193 184 184 201 178 191 194 182 168 171 178 160 163 163 166 171 174 177 178 178 185 185 194 197 182 191 182 193 196 167 150 123 108 104 100 94 98 97
322 219 200 222 224 239 251 185 191 203 187 178 183 233 180 198 180 153 161 163 169 174 177 180 183 183 185 187 192 195 184 191 182 197 195 174 155 137 144 123 124 108 98 117
285 332 186 215 222 236 234 211 199 202 195 183 204 182 227 169 187 165 166 168 172 177 180 183 184 187 188 189 190 195 189 191 184 193 194 191 156 158 159 145 131 132 132 111
258 310 279 199 198 229 239 214 192 201 199 208 171 184 202 211 230 198 168 168 176 180 182 186 186 190 191 191 191 193 192 194 186 192 198 197 168 177 171 161 155 155 155 130
218 235 278 185 194 117 254 181 195 198 207 196 184 190 197 216 213 166 177 179 181 183 186 189 189 188 190 191 188 190 193 196 190 191 200 192 180 185 169 174 174 168 169 148
202 208 221 353 169 211 192 234 169 154 195 186 173 189 171 180 201 225 184 183 181 182 186 188 189 189 189 191 189 189 193 198 195 189 202 197 187 192 181 188 187 184 179 165
194 215 202 230 145 252 183 234 182 194 226 193 183 185 178 171 180 211 209 184 184 181 183 189 189 191 192 190 190 191 194 200 201 189 202 200 194 197 197 194 199 188 177 168
313 289 194 159 112 209 184 288 229 210 184 179 181 188 183 194 196 206 207 183 178 177 180 186 188 193 192 193 193 194 196 200 199 192 200 202 196 198 201 204 205 199 182 177
30 354 236 6 198 275 137 209 298 241 175 167 188 185 193 190 199 208 190 181 176 176 179 185 192 192 193 196 199 197 200 195 198 194 201 203 201 205 208 209 211 208 196 186
348 7 4 348 14 341 2 12 359 349 171 162 173 196 191 183 184 189 192 180 176 176 179 185 191 191 192 198 203 208 199 194 197 196 204 204 203 205 208 214 219 218 208 201
24 304 341 280 357 349 3 347 340 342 19 154 195 208 197 192 188 192 175 172 170 173 179 185 191 193 199 200 204 207 203 196 197 198 207 208 207 209 212 223 224 227 224 216
173 275 7 310 337 336 317 326 338 353 7 352 21 202 192 191 188 191 178 171 170 172 178 183 190 193 200 203 205 207 206 201 198 199 209 212 208 210 217 221 218 231 235 221